• în România
  • Lista ţărilor
  • Pe 7 zile
  • Temperatura apei
  • Hartă satelitară
  • Meteo pe hartă
  • Widget-uri
  • user-avatar
    Intrare

    Meteo pe oră la Tirana

    Astăzi, 30 Aprilie, Duminică

    Timp Temperatura Precipitaţii Vânt Presiune Umiditate
    00:00 +14°C° 0 mm 5 m/s 750 mmHg 66%
    01:00 +13°C° 0 mm 5 m/s 750 mmHg 68%
    02:00 +13°C° 0 mm 5 m/s 750 mmHg 70%
    03:00 +13°C° 0 mm 5 m/s 750 mmHg 72%
    04:00 +13°C° 0 mm 5 m/s 750 mmHg 74%
    05:00 +14°C° 0 mm 4 m/s 750 mmHg 70%
    06:00 +17°C° 0 mm 4 m/s 750 mmHg 66%
    07:00 +19°C° 0 mm 4 m/s 750 mmHg 62%
    08:00 +21°C° 0 mm 4 m/s 750 mmHg 56%
    09:00 +23°C° 0 mm 4 m/s 750 mmHg 50%
    10:00 +26°C° 0 mm 4 m/s 750 mmHg 44%
    11:00 +26°C° 0,2 mm 5 m/s 750 mmHg 46%
    12:00 +26°C° 0,2 mm 6 m/s 750 mmHg 47%
    13:00 +26°C° 0,2 mm 6 m/s 749 mmHg 48%
    14:00 +24°C° 0,4 mm 6 m/s 749 mmHg 52%
    15:00 +23°C° 0,4 mm 6 m/s 749 mmHg 57%
    16:00 +22°C° 0,4 mm 6 m/s 749 mmHg 61%
    17:00 +20°C° 0,4 mm 5 m/s 749 mmHg 70%
    18:00 +18°C° 0,4 mm 4 m/s 749 mmHg 78%
    19:00 +15°C° 0,4 mm 4 m/s 750 mmHg 87%
    20:00 +15°C° 0,2 mm 4 m/s 750 mmHg 88%
    21:00 +16°C° 0,2 mm 3 m/s 750 mmHg 89%
    22:00 +14°C° 0,2 mm 3 m/s 751 mmHg 90%
    23:00 +14°C° 0,1 mm 3 m/s 751 mmHg 90%

    Mâine, 1 Mai, Luni

    Timp Temperatura Precipitaţii Vânt Presiune Umiditate
    00:00 +14°C° 0,1 mm 3 m/s 751 mmHg 90%
    01:00 +13°C° 0,1 mm 3 m/s 751 mmHg 91%
    02:00 +13°C° 0 mm 3 m/s 751 mmHg 91%
    03:00 +13°C° 0 mm 3 m/s 751 mmHg 91%
    04:00 +12°C° 0 mm 3 m/s 751 mmHg 91%
    05:00 +14°C° 0 mm 3 m/s 751 mmHg 86%
    06:00 +17°C° 0 mm 2 m/s 751 mmHg 81%
    07:00 +18°C° 0 mm 2 m/s 752 mmHg 76%
    08:00 +20°C° 0 mm 3 m/s 752 mmHg 70%
    09:00 +22°C° 0 mm 3 m/s 752 mmHg 64%
    10:00 +24°C° 0 mm 3 m/s 752 mmHg 58%
    11:00 +23°C° 0,2 mm 4 m/s 752 mmHg 58%
    12:00 +25°C° 0,2 mm 4 m/s 752 mmHg 59%
    13:00 +25°C° 0,2 mm 4 m/s 752 mmHg 59%
    14:00 +23°C° 0,1 mm 4 m/s 752 mmHg 61%
    15:00 +23°C° 0,1 mm 4 m/s 752 mmHg 63%
    16:00 +22°C° 0,1 mm 4 m/s 752 mmHg 65%
    17:00 +20°C° 0 mm 3 m/s 752 mmHg 74%
    18:00 +18°C° 0 mm 2 m/s 752 mmHg 83%
    19:00 +16°C° 0 mm 2 m/s 752 mmHg 92%
    20:00 +15°C° 0 mm 1 m/s 753 mmHg 92%
    21:00 +15°C° 0 mm 1 m/s 753 mmHg 92%
    22:00 +13°C° 0 mm 0 m/s 753 mmHg 93%
    23:00 +13°C° 0 mm 0 m/s 753 mmHg 93%

    Poimâine, 2 Mai, Marţi

    Timp Temperatura Precipitaţii Vânt Presiune Umiditate
    00:00 +14°C° 0 mm 1 m/s 753 mmHg 93%
    01:00 +13°C° 0 mm 1 m/s 753 mmHg 92%
    02:00 +13°C° 0 mm 1 m/s 753 mmHg 93%
    03:00 +13°C° 0 mm 1 m/s 753 mmHg 93%
    04:00 +12°C° 0 mm 1 m/s 753 mmHg 93%
    05:00 +15°C° 0 mm 1 m/s 754 mmHg 85%
    06:00 +18°C° 0 mm 1 m/s 754 mmHg 78%
    07:00 +21°C° 0 mm 1 m/s 754 mmHg 70%
    08:00 +23°C° 0 mm 1 m/s 754 mmHg 63%
    09:00 +24°C° 0 mm 1 m/s 754 mmHg 56%
    10:00 +26°C° 0 mm 2 m/s 754 mmHg 49%
    11:00 +27°C° 0 mm 3 m/s 754 mmHg 48%
    12:00 +27°C° 0 mm 3 m/s 754 mmHg 46%
    13:00 +27°C° 0 mm 4 m/s 754 mmHg 45%
    14:00 +26°C° 0 mm 4 m/s 754 mmHg 47%
    15:00 +26°C° 0 mm 4 m/s 753 mmHg 48%
    16:00 +25°C° 0 mm 4 m/s 753 mmHg 50%
    17:00 +21°C° 0 mm 3 m/s 754 mmHg 59%
    18:00 +18°C° 0 mm 3 m/s 754 mmHg 68%
    19:00 +16°C° 0 mm 2 m/s 754 mmHg 78%
    20:00 +15°C° 0 mm 2 m/s 754 mmHg 79%
    21:00 +15°C° 0 mm 1 m/s 754 mmHg 80%
    22:00 +14°C° 0 mm 1 m/s 755 mmHg 82%
    23:00 +14°C° 0 mm 1 m/s 755 mmHg 83%

    3 Mai, Miercuri

    Timp Temperatura Precipitaţii Vânt Presiune Umiditate
    00:00 +14°C° 0 mm 1 m/s 754 mmHg 84%
    01:00 +14°C° 0 mm 2 m/s 754 mmHg 86%
    02:00 +13°C° 0 mm 2 m/s 754 mmHg 86%
    03:00 +13°C° 0 mm 2 m/s 754 mmHg 86%
    04:00 +13°C° 0 mm 2 m/s 754 mmHg 86%
    05:00 +16°C° 0 mm 2 m/s 754 mmHg 77%
    06:00 +19°C° 0 mm 1 m/s 754 mmHg 69%
    07:00 +22°C° 0 mm 1 m/s 754 mmHg 60%
    08:00 +23°C° 0 mm 1 m/s 754 mmHg 55%
    09:00 +25°C° 0 mm 2 m/s 754 mmHg 50%
    10:00 +26°C° 0 mm 2 m/s 754 mmHg 45%
    11:00 +27°C° 0 mm 3 m/s 754 mmHg 44%
    12:00 +27°C° 0 mm 3 m/s 754 mmHg 43%
    13:00 +27°C° 0 mm 4 m/s 754 mmHg 42%
    14:00 +26°C° 0 mm 4 m/s 753 mmHg 44%
    15:00 +26°C° 0 mm 3 m/s 753 mmHg 46%
    16:00 +25°C° 0 mm 3 m/s 753 mmHg 47%
    17:00 +21°C° 0 mm 3 m/s 753 mmHg 58%
    18:00 +19°C° 0 mm 2 m/s 753 mmHg 69%
    19:00 +16°C° 0 mm 2 m/s 753 mmHg 79%
    20:00 +15°C° 0 mm 1 m/s 753 mmHg 81%
    21:00 +15°C° 0 mm 1 m/s 754 mmHg 82%
    22:00 +14°C° 0 mm 1 m/s 754 mmHg 84%
    23:00 +13°C° 0 mm 0 m/s 754 mmHg 84%

    4 Mai, Joi

    Timp Temperatura Precipitaţii Vânt Presiune Umiditate
    00:00 +13°C° 0 mm 0 m/s 753 mmHg 85%
    01:00 +12°C° 0 mm 0 m/s 753 mmHg 85%
    02:00 +12°C° 0 mm 0 m/s 753 mmHg 85%
    03:00 +12°C° 0 mm 0 m/s 753 mmHg 86%
    04:00 +11°C° 0 mm 0 m/s 753 mmHg 86%
    05:00 +14°C° 0 mm 0 m/s 753 mmHg 76%
    06:00 +17°C° 0 mm 0 m/s 752 mmHg 67%
    07:00 +19°C° 0 mm 0 m/s 752 mmHg 57%
    08:00 +23°C° 0 mm 1 m/s 753 mmHg 52%
    09:00 +24°C° 0 mm 1 m/s 753 mmHg 46%
    10:00 +25°C° 0 mm 1 m/s 753 mmHg 40%
    11:00 +26°C° 0 mm 2 m/s 752 mmHg 41%
    12:00 +26°C° 0 mm 2 m/s 752 mmHg 41%
    13:00 +26°C° 0 mm 3 m/s 752 mmHg 41%
    14:00 +25°C° 0 mm 3 m/s 752 mmHg 44%
    15:00 +25°C° 0 mm 3 m/s 752 mmHg 47%
    16:00 +24°C° 0 mm 2 m/s 752 mmHg 49%
    17:00 +20°C° 0 mm 2 m/s 752 mmHg 60%
    18:00 +18°C° 0 mm 2 m/s 752 mmHg 71%
    19:00 +15°C° 0 mm 1 m/s 752 mmHg 81%
    20:00 +15°C° 0 mm 2 m/s 752 mmHg 82%
    21:00 +14°C° 0 mm 2 m/s 753 mmHg 83%
    22:00 +14°C° 0 mm 2 m/s 753 mmHg 84%
    23:00 +13°C° 0 mm 2 m/s 753 mmHg 84%

    5 Mai, Vineri

    Timp Temperatura Precipitaţii Vânt Presiune Umiditate
    00:00 +13°C° 0 mm 2 m/s 753 mmHg 84%
    01:00 +12°C° 0 mm 3 m/s 753 mmHg 84%
    02:00 +12°C° 0 mm 3 m/s 752 mmHg 83%
    03:00 +11°C° 0 mm 3 m/s 752 mmHg 82%
    04:00 +11°C° 0 mm 3 m/s 752 mmHg 81%
    05:00 +15°C° 0 mm 2 m/s 752 mmHg 72%
    06:00 +17°C° 0 mm 2 m/s 752 mmHg 63%
    07:00 +19°C° 0 mm 2 m/s 752 mmHg 55%
    08:00 +20°C° 0 mm 2 m/s 752 mmHg 50%
    09:00 +22°C° 0 mm 3 m/s 752 mmHg 44%
    10:00 +24°C° 0 mm 3 m/s 752 mmHg 39%
    11:00 +24°C° 0,1 mm 3 m/s 752 mmHg 43%
    12:00 +23°C° 0,1 mm 4 m/s 752 mmHg 48%
    13:00 +23°C° 0,1 mm 4 m/s 752 mmHg 52%
    14:00 +22°C° 0,2 mm 4 m/s 752 mmHg 56%
    15:00 +21°C° 0,2 mm 4 m/s 752 mmHg 59%
    16:00 +20°C° 0,2 mm 4 m/s 752 mmHg 63%
    17:00 +18°C° 0 mm 3 m/s 752 mmHg 72%
    18:00 +16°C° 0 mm 2 m/s 752 mmHg 80%
    19:00 +14°C° 0 mm 2 m/s 753 mmHg 89%
    20:00 +13°C° 0 mm 2 m/s 753 mmHg 90%
    21:00 +13°C° 0 mm 1 m/s 754 mmHg 91%
    22:00 +12°C° 0 mm 1 m/s 754 mmHg 91%
    23:00 +12°C° 0 mm 1 m/s 754 mmHg 91%
    Arată mai mult